User: anonymous   Login
Location: Cedar Falls
(42.5280°N, 92.4450°W)
Time: 21:36:01
(UTC-05:00)
Language:

NOSS 3-1 (C) - Orbit

View from above orbital plane
View from above orbital plane
View from above satellite
View from above satellite

Ground track
Ground track

The orbit data is extracted from the following two-line orbital elements,

1 26907U 01040C   14302.19052342 0.00000000  00000-0  00000-0 0    08
2 26907  63.4213 325.3567 0285000 358.0948   1.9052 13.41206474    07
Epoch (UTC): 29 October 2014 04:34:21
Eccentricity: 0.0285000
inclination: 63.4213°
perigee height: 891 km
apogee height: 1318 km
right ascension of ascending node: 325.3567°
argument of perigee: 358.0948°
revolutions per day: 13.41206474
mean anomaly at epoch: 1.9052°
orbit number at epoch: 0

The dashed part of the orbit path shows where the satellite is in the earth's shadow,  

DLR